Simultaneous Nadir Overpasses (SNOs) Predictions

Prediction of SNOs between LANDSAT-8 and NOAA-19 Satellite Orbit:

Table of predicted SNOs for the next 14.0 days since TLE Epoch: 8/3/2019
Index Date (LANDSAT-8) Time (LANDSAT-8) Lat,Lon (LANDSAT-8) SZA (LANDSAT-8 ) Date (NOAA-19) Time (NOAA-19) Lat,Lon (NOAA-19) SZA (NOAA-19 ) Distance(km) Time Diff (sec)
1 08/04/2019 22:59:36 78.99,-144.16 62.48 08/04/2019 22:58:44 78.97,-144.28 62.44 3.28 52
2 08/04/2019 23:49:04 -78.96, 23.28 117.56 08/04/2019 23:49:41 -78.93, 23.31 117.57 3.29 37
3 08/07/2019 04:33:21 -79.02, -47.44 116.88 08/07/2019 04:32:09 -79.09, -48.45 116.90 22.56 72
4 08/07/2019 05:22:48 78.97, 119.93 63.08 08/07/2019 05:23:08 78.96, 119.83 63.06 2.65 20
5 08/09/2019 10:56:34 -78.96,-143.58 116.31 08/09/2019 10:56:29 -78.96,-143.44 116.30 3.13 5
6 08/11/2019 16:30:18 78.97, -46.98 64.36 08/11/2019 16:29:57 78.99, -46.96 64.38 2.73 21
7 08/11/2019 17:19:46 -78.94, 120.51 115.67 08/11/2019 17:20:53 -78.96, 120.52 115.63 2.50 67
8 08/13/2019 22:04:03 -79.00, 49.76 114.92 08/13/2019 22:03:17 -78.99, 49.77 114.94 0.42 46
9 08/13/2019 22:53:29 78.99,-142.66 65.07 08/13/2019 22:54:20 78.95,-142.65 65.06 3.94 51
10 08/16/2019 03:37:47 79.00, 146.34 65.78 08/16/2019 03:36:45 79.00, 146.43 65.77 1.88 62




NCC Satellite Simultaneous Nadir Overpasses (SNOs) Prediction Service
